Mitchell, SD

1:50 AM CDT on October 22, 2019 (GMT -0500)
Mitchell Municipal

Weather History for KMHE - September, 2019

Change the Weather History Date:

Sunday, September 22, 2019

  Actual Average Record
Temperature  
Mean Temperature 64 °F 60 °F  
Max Temperature 73 °F 73 °F 98 °F (1936)
Min Temperature 55 °F 47 °F 28 °F (1913)
Degree Days  
Heating Degree Days 1 6  
Month to date heating degree days 6 77  
Since 1 July heating degree days 15 94  
Cooling Degree Days 0 1  
Month to date cooling degree days 138 65  
Year to date cooling degree days 932 810  
Growing Degree Days 13 (Base 50)    
Moisture  
Dew Point 50 °F    
Average Humidity 64    
Maximum Humidity 86    
Minimum Humidity 41    
Precipitation  
Precipitation T in 0.08 in 1.60 in (1968)
Month to date precipitation 7.61 1.73  
Year to date precipitation 32.65 18.08  
Snow  
Snow 0.00 in - 0.00 in ()
Month to date snowfall 0.0  
Since 1 July snowfall 0.0  
Since 1 September snowfall 0.0  
Snow Depth 0.00 in    
Sea Level Pressure  
Sea Level Pressure 29.94 in    
Wind  
Wind Speed 7 mph (West)    
Max Wind Speed 10 mph    
Max Gust Speed 16 mph    
Visibility 10 miles    
Events Rain    
T = Trace of Precipitation, MM = Missing Value Source: NWS Daily Summary

Daily Weather History Graph

Daily Weather History Graph

Search for Another Location

Airport or City:

Astronomy

Sep. 22, 2019 Rise Set
Actual Time 7:19 AM CDT 7:29 PM CDT
Civil Twilight 6:50 AM CDT 7:58 PM CDT
Nautical Twilight 6:16 AM CDT 8:32 PM CDT
Astronomical Twilight 5:42 AM CDT 9:06 PM CDT
Moon No Moon Rise 3:39 PM CDT
Length of Visible Light 13h 08m
Length of Day
12h 10m
Last Quarter, 44% of the Moon is Illuminated
Sep 22
Last Quarter
Sep 28
New
Oct 5
First Quarter
Oct 13
Full
Oct 21
Last Quarter

Hourly Weather History & Observations

Time (CDT) Temp. Dew Point Humidity Pressure Visibility Wind Dir Wind Speed Gust Speed Precip Events Conditions
12:53 AM 57.9 °F 48.9 °F 72% 29.92 in 10.0 mi WSW 9.2 mph - N/A   Clear
1:53 AM 55.9 °F 50.0 °F 80% 29.90 in 10.0 mi West 5.8 mph - N/A   Clear
2:53 AM 57.0 °F 51.1 °F 81% 29.91 in 10.0 mi WNW 10.4 mph - N/A   Clear
3:53 AM 57.0 °F 51.1 °F 81% 29.92 in 10.0 mi NW 9.2 mph - N/A   Clear
4:53 AM 57.0 °F 52.0 °F 83% 29.92 in 10.0 mi WNW 6.9 mph - N/A   Clear
5:53 AM 57.0 °F 53.1 °F 87% 29.94 in 10.0 mi NW 4.6 mph - N/A   Mostly Cloudy
6:53 AM 57.9 °F 53.1 °F 84% 29.99 in 10.0 mi WSW 6.9 mph - N/A   Overcast
7:53 AM 57.0 °F 53.1 °F 87% 29.95 in 10.0 mi NNW 3.5 mph - 0.00 in   Partly Cloudy
8:53 AM 57.9 °F 53.1 °F 84% 29.95 in 10.0 mi NW 5.8 mph - N/A   Clear
9:53 AM 60.1 °F 54.0 °F 80% 29.96 in 10.0 mi NW 8.1 mph - N/A   Clear
10:53 AM 64.0 °F 52.0 °F 65% 29.96 in 10.0 mi NW 6.9 mph - N/A   Clear
11:53 AM 66.9 °F 48.0 °F 51% 29.96 in 10.0 mi WNW 9.2 mph - N/A   Clear
12:53 PM 70.0 °F 48.0 °F 46% 29.94 in 10.0 mi NW 9.2 mph 16.1 mph N/A   Clear
1:53 PM 71.1 °F 46.9 °F 42% 29.93 in 10.0 mi West 10.4 mph - N/A   Scattered Clouds
2:53 PM 71.1 °F 46.0 °F 41% 29.92 in 10.0 mi NW 10.4 mph - N/A   Clear
3:53 PM 71.1 °F 46.9 °F 42% 29.92 in 10.0 mi NNW 8.1 mph - N/A   Partly Cloudy
4:53 PM 70.0 °F 48.9 °F 47% 29.92 in 10.0 mi West 9.2 mph - 0.00 in Rain Light Rain
5:53 PM 68.0 °F 48.0 °F 49% 29.94 in 10.0 mi West 9.2 mph - 0.00 in   Mostly Cloudy
6:53 PM 64.9 °F 48.0 °F 54% 29.94 in 10.0 mi West 4.6 mph - N/A   Clear
7:53 PM 62.1 °F 50.0 °F 65% 29.95 in 9.0 mi SW 5.8 mph - N/A   Clear
8:53 PM 61.0 °F 51.1 °F 70% 29.97 in 10.0 mi SW 5.8 mph - N/A   Clear
9:53 PM 59.0 °F 51.1 °F 75% 29.98 in 10.0 mi SSW 5.8 mph - N/A   Clear
10:53 PM 57.9 °F 50.0 °F 75% 29.98 in 10.0 mi SSW 4.6 mph - N/A   Clear
11:53 PM 57.9 °F 48.9 °F 72% 29.97 in 10.0 mi SSW 6.9 mph - N/A   Clear